Location: Misciano
(43.5000°N, 11.9500°E)
Time: 19:50:23
(UTC+00:00)

Cosmos 1869 Rocket - Pass Details

Date: 13 August 2020
Orbit: 604 x 634 km, 82.5° (Epoch: 22 September)

Event Time Altitude Azimuth Distance (km) Brightness Sun altitude
Exits shadow 20:23:52 37° 88° (E) 973 4.2 -20.0°
Drops below altitude 10° 20:27:54 10° 24° (NNE) 2,019 6.4 -20.5°
Sets 20:30:16 0° 17° (NNE) 2,935 7.4 -20.8°
